Terug naar catalogus

STARLINK-11356

ActiefCommunicatieVLEO
NORAD 61574·PAYLOAD·🇺🇸 United States

Gelanceerd Oct 18, 2024 vanaf Cape Canaveral Space Force Station

Loading…

Volgende Passages (komende 24 uur)

TLE

VersSource: CelesTrak SupGP

Epoch: Sep 15, 2026, 02:34 UTC

1 61574C 24187A   26258.10743056 -.00003209  00000+0 -26421-4 0  2586
2 61574  53.1567  82.5176 0001044  78.9648 158.2513 15.69724169    18

Volg STARLINK-11356 in realtime met AllMySat

Download on the App Store